Regional Weather Roundup
Issued by NWS

Home | Current Version | Previous Version | Graphics & Text | Print | Product List | Glossary On
Versions: 1 2 3 4 5 6 7 8 9 10 11 12 13 14 15 16 17 18 19 20 21 22 23 24 25 26 27 28
000
ASUS45 KBOU 231707
RWRCO

WEATHER ROUNDUP FOR COLORADO
NATIONAL WEATHER SERVICE DENVER/BOULDER CO
1100 AM MDT THU MAR 23 2017

NOTE: "FAIR" INDICATES FEW OR NO CLOUDS BELOW 12000 FEET WITH NO
SIGNIFICANT WEATHER AND/OR OBSTRUCTIONS TO VISIBILITY.

COZ001>005-013-030-031-231800-
...NORTHWEST COLORADO...

CITY           SKY/WX    TMP DP  RH WIND       PRES   REMARKS
CRAIG          FAIR      56  31  38 SW17G25   29.74F
HAYDEN         FAIR      54  19  26 SW20G26   29.75S
MEEKER         FAIR      55  28  35 S29G35    29.73F
MOUNT WERNER   NOT AVBL
STEAMBOAT SPGS PTSUNNY   53  23  30 S6        29.75S
WALDEN         NOT AVBL
$$

COZ006>008-011-231800-
...WEST CENTRAL VALLEYS...

CITY           SKY/WX    TMP DP  RH WIND       PRES   REMARKS
GRAND JUNCTION CLOUDY    52  39  61 NW12      29.75F
MONTROSE       PTSUNNY   57  29  34 N10G17    29.75F
EAGLE          PTSUNNY   52  30  43 W8        29.78F
RIFLE          PTSUNNY   57  31  37 W23       29.73F
DELTA          CLOUDY    56  29  35 W7        29.77R
NUCLA          DRIZZLE   45  34  65 N3        29.84F
$$

COZ017>023-064>068-231800-
...SOUTHWEST COLORADO...

CITY           SKY/WX    TMP DP  RH WIND       PRES   REMARKS
DURANGO        CLOUDY    48  27  44 S12       29.84F
CORTEZ         CLOUDY    42  34  73 NW15G25   29.81S
PAGOSA SPRINGS FAIR      46  28  49 SW9G17    29.87F
TELLURIDE      NOT AVBL
WOLF CREEK PAS LGT SNOW  23  23 100 S14G25    29.98F WCI  11
$$

COZ009-010-012-014-032>034-037-058>063-231800-
...CENTRAL COLORADO...

CITY           SKY/WX    TMP DP  RH WIND       PRES   REMARKS
ASPEN          PTSUNNY   53  16  23 SE16G25   29.77F
BUENA VISTA    PTSUNNY   50  14  23 S7        29.83F
COPPER MTN     FAIR      36  14  41 S23G31    29.93F
BERTHOUD PASS  PTSUNNY   28  18  64 SW12G23   29.94F WCI  18
COTTONWOOD PAS PTSUNNY   46  12  25 S8        29.89F
GUNNISON       FAIR      50  25  37 S16       29.81F
KREMMLING      FAIR      57  25  28 W12G18    29.79F
LEADVILLE      PTSUNNY   39  14  36 S15       29.86F
MONARCH PASS   PTSUNNY   34  16  47 S31G39    30.04F WCI  20
SALIDA         CLOUDY    54  19  25 SW10      29.89F
SUNLIGHT       PTSUNNY   32  21  64 SW8       29.92F WCI  25
WILKERSON PASS FAIR      41  10  28 S10G21    29.94F
$$

COZ069>075-231800-
...SAN LUIS VALLEY/SANGRE DE CRISTO MOUNTAINS...

CITY           SKY/WX    TMP DP  RH WIND       PRES   REMARKS
ALAMOSA        FAIR      56  23  27 SW22G30   29.85F
LA VETA PASS   NOT AVBL
SAGUACHE       PTSUNNY   52  23  32 W15G21    29.86S
$$

COZ035-036-038>040-231800-
...NORTHERN COLORADO FRONT RANGE...

CITY           SKY/WX    TMP DP  RH WIND       PRES   REMARKS
DENVER INTL AP FAIR      71  15  11 SW23G30   29.66F
DMNS CITY PARK   N/A     69  16  12 S12G22    29.65F
AURORA         MOSUNNY   69  12  11 SW22G33   29.68F
FRONT RANGE AP MOSUNNY   72  16  12 SW12G22   29.69F
ERIE MUNI ARPT FAIR      71  10   9 S23G30    29.66S
BOULDER MUN AP FAIR      70  19  14 S14G21    29.63F
CENTENNIAL     FAIR      67  12  12 SW18G31   29.69F
BROOMFIELD     MOSUNNY   68  16  13 SW18G25   29.68F
FORT COLLINS   FAIR      63  36  36 SE9       29.66F
LONGMONT       FAIR      66  34  30 NE8       29.66F
$$

COZ041-046-047-076>085-087-088-231800-
...PIKES PEAK/PALMER DIVIDE AND SOUTHERN FOOTHILLS...

CITY           SKY/WX    TMP DP  RH WIND       PRES   REMARKS
COLO. SPRINGS  FAIR      67  16  14 SW28G37   29.73F
A. F. ACADEMY  FAIR      65  13  13 S30G38    29.73F
SCHRIEVER AFB  FAIR      65  20  17 SW21G29   29.75F
ELLICOTT         N/A    N/A N/A N/A SW18G26   29.73F
FALCON         FAIR      63  15  15 SW28G33   29.78F
FORT CARSON    NOT AVBL
LIMON          FAIR      72  16  12 SW18G31   29.70F
MONUMENT HILL  FAIR      61  14  16 SW17G30   29.78F
TRINIDAD       FAIR      72  17  12 S18G25    29.73F
$$

COZ042>045-048>051-090-091-231800-
...NORTHEAST COLORADO...

CITY           SKY/WX    TMP DP  RH WIND       PRES   REMARKS
GREELEY ARPT   FAIR      63  39  41 SE7       29.67F
AKRON          FAIR      69  35  28 MISG      29.67F
BURLINGTON     FAIR      71  51  49 S12       29.68F
WRAY           NOT AVBL
STERLING       FAIR      50  39  66 CALM      29.66F
HOLYOKE        FAIR      63  45  51 SW3       29.66F
FORT MORGAN    FAIR      63  37  37 S3        29.67F
$$

COZ086-089-092>099-231800-
...SOUTHEAST COLORADO...

CITY           SKY/WX    TMP DP  RH WIND       PRES   REMARKS
PUEBLO         FAIR      75  22  13 W15G22    29.67F
LA JUNTA       FAIR      73  37  27 MISG      29.68F
LAMAR          FAIR      75  43  31 NW7       29.66F
SPRINGFIELD      N/A     70  45  40 S21G31    29.74F
$$




USA.gov is the U.S. government's official web portal to all federal, state and local government web resources and services.